Torna al catalogo

FENGYUN 1C DEB

AttivoSSO
NORAD 30717·DEBRIS·🇨🇳 China

Lanciato May 10, 1999 da Taiyuan Satellite Launch Center

Loading…

Prossimi Passaggi (prossime 24 ore)

TLE

AggiornatoSource: Space-Track

Epoca: Sep 14, 2026, 03:45 UTC

1 30717U 99025ASB 26257.15675884  .00001768  00000-0  81192-3 0  9995
2 30717  99.0040 338.4461 0047915 188.6051 171.4309 14.21977650  4412

Traccia FENGYUN 1C DEB in tempo reale con AllMySat

Download on the App Store